Date_UTC,IAGA,MLT,MLAT,IGRF_DECL,SZA,N,E,Z
2015-08-15 08:00:00,THL,5.00,84.72,-49.35,84.17,-19.0,33.0,-35.7
2015-08-15 08:01:00,THL,5.01,84.72,-49.35,84.13,-19.4,33.8,-35.3
2015-08-15 08:02:00,THL,5.03,84.72,-49.35,84.08,-20.5,34.4,-35.0
2015-08-15 08:03:00,THL,5.05,84.72,-49.35,84.04,-21.7,35.2,-34.9
2015-08-15 08:04:00,THL,5.06,84.72,-49.35,84.00,-22.5,35.8,-35.4
2015-08-15 08:05:00,THL,5.08,84.72,-49.35,83.96,-22.9,37.3,-36.0
2015-08-15 08:06:00,THL,5.10,84.72,-49.35,83.92,-22.0,38.3,-37.8
2015-08-15 08:07:00,THL,5.11,84.72,-49.35,83.88,-19.7,38.5,-40.4
2015-08-15 08:08:00,THL,5.13,84.72,-49.35,83.84,-18.1,37.8,-43.3
2015-08-15 08:09:00,THL,5.15,84.72,-49.35,83.80,-16.2,37.3,-46.2
2015-08-15 08:10:00,THL,5.17,84.72,-49.35,83.76,-13.4,35.3,-49.3
2015-08-15 08:11:00,THL,5.18,84.72,-49.35,83.72,-11.4,35.4,-51.2
2015-08-15 08:12:00,THL,5.20,84.72,-49.35,83.67,-9.8,35.2,-52.5
2015-08-15 08:13:00,THL,5.22,84.72,-49.35,83.63,-9.0,34.4,-53.3
2015-08-15 08:14:00,THL,5.23,84.72,-49.35,83.59,-7.7,33.8,-53.7
2015-08-15 08:15:00,THL,5.25,84.72,-49.35,83.55,-6.1,33.5,-53.6
2015-08-15 08:16:00,THL,5.27,84.72,-49.35,83.50,-5.6,33.3,-52.4
2015-08-15 08:17:00,THL,5.28,84.72,-49.35,83.46,-5.8,33.3,-50.2
2015-08-15 08:18:00,THL,5.30,84.72,-49.35,83.42,-6.1,33.4,-47.9
2015-08-15 08:19:00,THL,5.32,84.72,-49.35,83.38,-6.4,33.5,-45.0
2015-08-15 08:20:00,THL,5.33,84.72,-49.35,83.33,-6.1,34.1,-43.2
2015-08-15 08:21:00,THL,5.35,84.72,-49.35,83.29,-6.2,34.7,-42.0
2015-08-15 08:22:00,THL,5.37,84.72,-49.35,83.25,-7.7,35.8,-41.3
2015-08-15 08:23:00,THL,5.38,84.72,-49.35,83.20,-9.2,35.5,-40.8
2015-08-15 08:24:00,THL,5.40,84.72,-49.35,83.16,-11.1,35.5,-39.5
2015-08-15 08:25:00,THL,5.42,84.72,-49.35,83.12,-12.4,34.5,-38.8
2015-08-15 08:26:00,THL,5.43,84.72,-49.35,83.07,-13.1,34.3,-38.4
2015-08-15 08:27:00,THL,5.45,84.72,-49.35,83.03,-13.0,35.2,-38.1
2015-08-15 08:28:00,THL,5.47,84.72,-49.35,82.99,-12.3,35.4,-38.3
2015-08-15 08:29:00,THL,5.48,84.72,-49.35,82.94,-14.4,34.2,-38.6
2015-08-15 08:30:00,THL,5.50,84.72,-49.35,82.90,-57.9,23.5,-23.4
2015-08-15 08:31:00,THL,5.52,84.72,-49.35,82.85,-81.7,30.9,-8.2
2015-08-15 08:32:00,THL,5.53,84.72,-49.35,82.81,-54.3,55.5,-17.7
2015-08-15 08:33:00,THL,5.55,84.72,-49.35,82.76,-29.8,69.8,-29.8
2015-08-15 08:34:00,THL,5.57,84.72,-49.35,82.72,-6.7,80.5,-42.1
2015-08-15 08:35:00,THL,5.58,84.72,-49.35,82.67,8.8,89.4,-51.5
2015-08-15 08:36:00,THL,5.60,84.72,-49.35,82.63,19.3,90.8,-60.7
2015-08-15 08:37:00,THL,5.62,84.72,-49.35,82.58,34.4,85.3,-73.8
2015-08-15 08:38:00,THL,5.63,84.72,-49.35,82.54,46.0,83.0,-85.6
2015-08-15 08:39:00,THL,5.65,84.72,-49.35,82.49,53.8,83.2,-93.3
2015-08-15 08:40:00,THL,5.67,84.72,-49.35,82.45,66.4,85.6,-103.3
2015-08-15 08:41:00,THL,5.68,84.72,-49.35,82.40,79.4,89.9,-113.5
2015-08-15 08:42:00,THL,5.70,84.72,-49.35,82.36,90.0,90.0,-121.4
2015-08-15 08:43:00,THL,5.72,84.72,-49.35,82.31,93.4,88.3,-123.3
2015-08-15 08:44:00,THL,5.73,84.72,-49.35,82.26,103.0,91.2,-124.7
2015-08-15 08:45:00,THL,5.75,84.72,-49.35,82.22,112.2,95.3,-125.0
2015-08-15 08:46:00,THL,5.77,84.72,-49.35,82.17,118.8,100.0,-120.2
2015-08-15 08:47:00,THL,5.78,84.72,-49.35,82.13,119.5,104.4,-113.1
2015-08-15 08:48:00,THL,5.80,84.72,-49.35,82.08,114.5,108.8,-104.9
2015-08-15 08:49:00,THL,5.82,84.72,-49.35,82.03,109.9,112.6,-94.5
2015-08-15 08:50:00,THL,5.83,84.72,-49.35,81.99,104.4,118.7,-82.0
2015-08-15 08:51:00,THL,5.85,84.72,-49.35,81.94,91.5,126.5,-69.6
2015-08-15 08:52:00,THL,5.87,84.72,-49.35,81.89,73.1,130.8,-62.4
2015-08-15 08:53:00,THL,5.88,84.72,-49.35,81.85,61.8,129.7,-64.6
2015-08-15 08:54:00,THL,5.90,84.72,-49.35,81.80,52.7,124.8,-69.9
2015-08-15 08:55:00,THL,5.92,84.72,-49.35,81.75,44.7,123.5,-72.7
2015-08-15 08:56:00,THL,5.93,84.72,-49.35,81.70,39.7,124.9,-74.0
2015-08-15 08:57:00,THL,5.95,84.72,-49.35,81.66,41.2,124.2,-76.5
2015-08-15 08:58:00,THL,5.97,84.72,-49.35,81.61,42.9,120.2,-79.2
2015-08-15 08:59:00,THL,5.99,84.72,-49.35,81.56,42.5,117.0,-80.6
2015-08-15 09:00:00,THL,6.00,84.72,-49.35,81.51,38.4,118.5,-79.0
2015-08-15 09:01:00,THL,6.02,84.72,-49.35,81.47,35.8,120.6,-77.2
2015-08-15 09:02:00,THL,6.04,84.72,-49.35,81.42,31.5,121.2,-74.9
2015-08-15 09:03:00,THL,6.05,84.72,-49.35,81.37,24.8,119.4,-72.0
2015-08-15 09:04:00,THL,6.07,84.72,-49.35,81.32,18.2,119.2,-70.3
2015-08-15 09:05:00,THL,6.09,84.72,-49.35,81.27,10.9,119.3,-69.2
2015-08-15 09:06:00,THL,6.10,84.72,-49.35,81.22,5.8,118.0,-69.9
2015-08-15 09:07:00,THL,6.12,84.72,-49.35,81.18,7.6,117.6,-73.2
2015-08-15 09:08:00,THL,6.14,84.72,-49.35,81.13,0.8,116.0,-74.0
2015-08-15 09:09:00,THL,6.15,84.72,-49.35,81.08,-5.4,117.2,-71.8
2015-08-15 09:10:00,THL,6.17,84.72,-49.35,81.03,-2.7,115.9,-74.2
2015-08-15 09:11:00,THL,6.19,84.72,-49.35,80.98,-7.5,112.9,-74.8
2015-08-15 09:12:00,THL,6.20,84.72,-49.35,80.93,-8.9,115.2,-74.5
2015-08-15 09:13:00,THL,6.22,84.72,-49.35,80.88,-7.3,116.0,-74.8
2015-08-15 09:14:00,THL,6.24,84.72,-49.35,80.83,-5.0,117.9,-75.9
2015-08-15 09:15:00,THL,6.25,84.72,-49.35,80.78,-4.2,125.1,-74.3
2015-08-15 09:16:00,THL,6.27,84.72,-49.35,80.73,2.9,130.6,-76.1
2015-08-15 09:17:00,THL,6.29,84.72,-49.35,80.69,6.4,140.4,-76.8
2015-08-15 09:18:00,THL,6.30,84.72,-49.35,80.64,7.7,147.4,-78.0
2015-08-15 09:19:00,THL,6.32,84.72,-49.35,80.59,2.9,150.4,-78.2
2015-08-15 09:20:00,THL,6.34,84.72,-49.35,80.54,-9.1,155.0,-75.6
2015-08-15 09:21:00,THL,6.35,84.72,-49.35,80.49,-20.0,156.2,-75.2
2015-08-15 09:22:00,THL,6.37,84.72,-49.35,80.44,-20.2,159.3,-79.8
2015-08-15 09:23:00,THL,6.39,84.72,-49.35,80.39,-7.9,166.3,-88.3
2015-08-15 09:24:00,THL,6.40,84.72,-49.35,80.34,-6.0,168.2,-90.4
2015-08-15 09:25:00,THL,6.42,84.72,-49.35,80.29,-6.1,170.3,-87.9
2015-08-15 09:26:00,THL,6.44,84.72,-49.35,80.24,-9.1,167.7,-83.8
2015-08-15 09:27:00,THL,6.45,84.72,-49.35,80.19,-11.5,166.8,-79.3
2015-08-15 09:28:00,THL,6.47,84.72,-49.35,80.14,-15.8,174.1,-71.9
2015-08-15 09:29:00,THL,6.49,84.72,-49.35,80.08,-17.7,174.5,-67.3
2015-08-15 09:30:00,THL,6.51,84.72,-49.35,80.03,-23.9,175.6,-62.3
2015-08-15 09:31:00,THL,6.52,84.72,-49.35,79.98,-32.4,165.8,-60.0
2015-08-15 09:32:00,THL,6.54,84.72,-49.35,79.93,-50.7,152.0,-54.4
2015-08-15 09:33:00,THL,6.56,84.72,-49.35,79.88,-65.7,146.2,-49.1
2015-08-15 09:34:00,THL,6.57,84.72,-49.35,79.83,-70.9,139.9,-47.9
2015-08-15 09:35:00,THL,6.59,84.72,-49.35,79.78,-71.8,140.7,-46.2
2015-08-15 09:36:00,THL,6.61,84.72,-49.35,79.73,-56.1,165.9,-46.9
2015-08-15 09:37:00,THL,6.62,84.72,-49.35,79.68,-39.9,181.1,-51.7
2015-08-15 09:38:00,THL,6.64,84.72,-49.35,79.63,-37.9,186.8,-51.8
2015-08-15 09:39:00,THL,6.66,84.72,-49.35,79.58,-45.7,183.0,-47.5
2015-08-15 09:40:00,THL,6.67,84.72,-49.35,79.52,-52.8,180.3,-40.7
2015-08-15 09:41:00,THL,6.69,84.72,-49.35,79.47,-49.7,172.4,-38.6
2015-08-15 09:42:00,THL,6.71,84.72,-49.35,79.42,-55.0,163.3,-34.7
2015-08-15 09:43:00,THL,6.72,84.72,-49.35,79.37,-60.3,152.4,-32.1
2015-08-15 09:44:00,THL,6.74,84.72,-49.35,79.32,-60.4,145.9,-31.3
2015-08-15 09:45:00,THL,6.76,84.72,-49.35,79.27,-72.5,141.2,-27.0
2015-08-15 09:46:00,THL,6.77,84.72,-49.35,79.21,-73.1,141.9,-25.3
2015-08-15 09:47:00,THL,6.79,84.72,-49.35,79.16,-64.7,155.0,-23.9
2015-08-15 09:48:00,THL,6.81,84.72,-49.35,79.11,-53.0,169.4,-24.1
2015-08-15 09:49:00,THL,6.82,84.72,-49.35,79.06,-44.5,184.2,-25.7
2015-08-15 09:50:00,THL,6.84,84.72,-49.35,79.01,-49.5,192.4,-24.1
2015-08-15 09:51:00,THL,6.86,84.72,-49.35,78.95,-55.9,200.4,-23.4
2015-08-15 09:52:00,THL,6.87,84.72,-49.35,78.90,-61.4,200.9,-26.8
2015-08-15 09:53:00,THL,6.89,84.72,-49.35,78.85,-60.0,200.1,-31.1
2015-08-15 09:54:00,THL,6.91,84.72,-49.35,78.80,-52.0,194.0,-35.9
2015-08-15 09:55:00,THL,6.92,84.72,-49.35,78.75,-42.3,193.2,-36.6
2015-08-15 09:56:00,THL,6.94,84.72,-49.35,78.69,-39.3,195.2,-32.0
2015-08-15 09:57:00,THL,6.96,84.72,-49.35,78.64,-39.2,206.6,-22.7
2015-08-15 09:58:00,THL,6.97,84.72,-49.35,78.59,-39.4,219.9,-12.0
2015-08-15 09:59:00,THL,6.99,84.72,-49.35,78.54,-49.2,234.7,-0.4
2015-08-15 10:00:00,THL,7.01,84.72,-49.35,78.48,-53.0,248.7,2.0
2015-08-15 10:01:00,THL,7.02,84.72,-49.35,78.43,-53.2,255.7,-7.0
2015-08-15 10:02:00,THL,7.04,84.72,-49.35,78.38,-52.1,257.2,-16.5
2015-08-15 10:03:00,THL,7.06,84.72,-49.35,78.33,-54.6,249.0,-21.6
2015-08-15 10:04:00,THL,7.07,84.72,-49.35,78.27,-65.0,246.4,-18.3
2015-08-15 10:05:00,THL,7.09,84.72,-49.35,78.22,-67.3,240.1,-17.9
2015-08-15 10:06:00,THL,7.11,84.72,-49.35,78.17,-67.7,229.1,-19.8
2015-08-15 10:07:00,THL,7.12,84.72,-49.35,78.11,-66.8,223.2,-21.8
2015-08-15 10:08:00,THL,7.14,84.72,-49.35,78.06,-61.1,222.0,-26.3
2015-08-15 10:09:00,THL,7.16,84.72,-49.35,78.01,-59.3,230.9,-26.6
2015-08-15 10:10:00,THL,7.17,84.72,-49.35,77.96,-53.5,242.4,-27.7
2015-08-15 10:11:00,THL,7.19,84.72,-49.35,77.90,-50.3,238.2,-34.9
2015-08-15 10:12:00,THL,7.21,84.72,-49.35,77.85,-46.0,241.5,-41.6
2015-08-15 10:13:00,THL,7.22,84.72,-49.35,77.80,-40.7,245.8,-47.0
2015-08-15 10:14:00,THL,7.24,84.72,-49.35,77.74,-35.5,241.8,-50.7
2015-08-15 10:15:00,THL,7.26,84.72,-49.35,77.69,-29.6,236.7,-53.0
2015-08-15 10:16:00,THL,7.27,84.72,-49.35,77.64,-27.4,234.9,-54.5
2015-08-15 10:17:00,THL,7.29,84.72,-49.35,77.58,-29.6,233.7,-53.6
2015-08-15 10:18:00,THL,7.31,84.72,-49.35,77.53,-27.0,230.0,-54.1
2015-08-15 10:19:00,THL,7.32,84.72,-49.35,77.48,-33.0,227.2,-53.4
2015-08-15 10:20:00,THL,7.34,84.72,-49.35,77.42,-32.1,227.5,-54.3
2015-08-15 10:21:00,THL,7.36,84.72,-49.35,77.37,-26.2,226.1,-58.1
2015-08-15 10:22:00,THL,7.37,84.72,-49.35,77.32,-24.5,233.5,-56.8
2015-08-15 10:23:00,THL,7.39,84.72,-49.35,77.26,-19.1,232.0,-55.5
2015-08-15 10:24:00,THL,7.41,84.72,-49.35,77.21,-18.9,222.9,-53.5
2015-08-15 10:25:00,THL,7.42,84.72,-49.35,77.15,-26.3,213.6,-50.1
2015-08-15 10:26:00,THL,7.44,84.72,-49.35,77.10,-32.8,211.3,-47.4
2015-08-15 10:27:00,THL,7.46,84.72,-49.35,77.05,-37.0,205.9,-44.8
2015-08-15 10:28:00,THL,7.47,84.72,-49.35,76.99,-40.2,202.3,-43.1
2015-08-15 10:29:00,THL,7.49,84.72,-49.35,76.94,-45.7,205.7,-38.8
2015-08-15 10:30:00,THL,7.51,84.72,-49.35,76.89,-41.9,206.9,-36.3
2015-08-15 10:31:00,THL,7.52,84.72,-49.35,76.83,-40.1,194.1,-35.7
2015-08-15 10:32:00,THL,7.54,84.72,-49.35,76.78,-42.0,183.2,-32.6
2015-08-15 10:33:00,THL,7.56,84.72,-49.35,76.72,-47.2,175.9,-29.0
2015-08-15 10:34:00,THL,7.57,84.72,-49.35,76.67,-52.6,173.7,-26.6
2015-08-15 10:35:00,THL,7.59,84.72,-49.35,76.62,-56.2,168.9,-27.5
2015-08-15 10:36:00,THL,7.61,84.72,-49.35,76.56,-61.6,164.5,-28.8
2015-08-15 10:37:00,THL,7.62,84.72,-49.35,76.51,-62.5,163.8,-29.9
2015-08-15 10:38:00,THL,7.64,84.72,-49.35,76.46,-60.3,157.7,-32.6
2015-08-15 10:39:00,THL,7.66,84.72,-49.35,76.40,-55.8,165.4,-32.4
2015-08-15 10:40:00,THL,7.67,84.72,-49.35,76.35,-47.2,172.2,-33.2
2015-08-15 10:41:00,THL,7.69,84.72,-49.35,76.29,-36.3,168.5,-39.3
2015-08-15 10:42:00,THL,7.70,84.72,-49.35,76.24,-38.9,168.3,-40.0
2015-08-15 10:43:00,THL,7.72,84.72,-49.35,76.19,-41.1,169.8,-39.7
2015-08-15 10:44:00,THL,7.74,84.72,-49.35,76.13,-40.1,167.4,-41.2
2015-08-15 10:45:00,THL,7.75,84.72,-49.35,76.08,-36.2,164.9,-43.3
2015-08-15 10:46:00,THL,7.77,84.72,-49.35,76.02,-31.0,167.8,-45.5
2015-08-15 10:47:00,THL,7.79,84.72,-49.35,75.97,-31.0,163.5,-47.1
2015-08-15 10:48:00,THL,7.80,84.72,-49.35,75.92,-26.9,161.8,-49.9
2015-08-15 10:49:00,THL,7.82,84.72,-49.35,75.86,-26.6,157.5,-52.3
2015-08-15 10:50:00,THL,7.84,84.72,-49.35,75.81,-26.2,150.9,-54.7
2015-08-15 10:51:00,THL,7.85,84.72,-49.35,75.75,-23.2,149.6,-56.3
2015-08-15 10:52:00,THL,7.87,84.72,-49.35,75.70,-17.4,151.5,-58.0
2015-08-15 10:53:00,THL,7.89,84.72,-49.35,75.65,-17.4,150.4,-57.3
2015-08-15 10:54:00,THL,7.90,84.72,-49.35,75.59,-10.8,152.9,-57.1
2015-08-15 10:55:00,THL,7.92,84.72,-49.35,75.54,-6.8,149.4,-57.1
2015-08-15 10:56:00,THL,7.93,84.72,-49.35,75.48,-9.4,149.3,-53.3
2015-08-15 10:57:00,THL,7.95,84.72,-49.35,75.43,-8.6,148.3,-50.6
2015-08-15 10:58:00,THL,7.97,84.72,-49.35,75.38,-6.3,143.0,-49.9
2015-08-15 10:59:00,THL,7.98,84.72,-49.35,75.32,-16.4,132.5,-45.4
2015-08-15 11:00:00,THL,8.00,84.72,-49.35,75.27,-26.7,123.8,-40.9
2015-08-15 11:01:00,THL,8.02,84.72,-49.35,75.21,-39.6,120.6,-35.2
2015-08-15 11:02:00,THL,8.03,84.72,-49.35,75.16,-48.7,120.5,-30.8
2015-08-15 11:03:00,THL,8.05,84.72,-49.35,75.11,-51.0,121.4,-28.4
2015-08-15 11:04:00,THL,8.06,84.72,-49.35,75.05,-54.4,125.5,-24.4
2015-08-15 11:05:00,THL,8.08,84.72,-49.35,75.00,-62.0,129.6,-19.8
2015-08-15 11:06:00,THL,8.10,84.72,-49.35,74.94,-62.2,138.0,-17.5
2015-08-15 11:07:00,THL,8.11,84.72,-49.35,74.89,-52.9,138.9,-22.4
2015-08-15 11:08:00,THL,8.13,84.72,-49.35,74.84,-54.6,127.7,-27.9
2015-08-15 11:09:00,THL,8.15,84.72,-49.35,74.78,-59.5,116.8,-33.7
2015-08-15 11:10:00,THL,8.16,84.72,-49.35,74.73,-66.2,110.7,-37.6
2015-08-15 11:11:00,THL,8.18,84.72,-49.35,74.67,-59.1,106.7,-44.7
2015-08-15 11:12:00,THL,8.19,84.72,-49.35,74.62,-54.6,108.5,-48.4
2015-08-15 11:13:00,THL,8.21,84.72,-49.35,74.57,-53.8,104.5,-49.8
2015-08-15 11:14:00,THL,8.23,84.72,-49.35,74.51,-51.6,102.4,-49.6
2015-08-15 11:15:00,THL,8.24,84.72,-49.35,74.46,-35.0,103.6,-52.1
2015-08-15 11:16:00,THL,8.26,84.72,-49.35,74.40,-11.1,111.1,-57.4
2015-08-15 11:17:00,THL,8.27,84.72,-49.35,74.35,-4.3,105.7,-59.4
2015-08-15 11:18:00,THL,8.29,84.72,-49.35,74.30,-6.7,93.6,-59.7
2015-08-15 11:19:00,THL,8.31,84.72,-49.35,74.24,-11.2,91.3,-56.3
2015-08-15 11:20:00,THL,8.32,84.72,-49.35,74.19,-13.1,94.4,-53.1
2015-08-15 11:21:00,THL,8.34,84.72,-49.35,74.14,-18.7,98.8,-48.8
2015-08-15 11:22:00,THL,8.35,84.72,-49.35,74.08,-17.3,101.0,-47.7
2015-08-15 11:23:00,THL,8.37,84.72,-49.35,74.03,-19.8,100.8,-45.1
2015-08-15 11:24:00,THL,8.39,84.72,-49.35,73.97,-24.2,103.2,-40.9
2015-08-15 11:25:00,THL,8.40,84.72,-49.35,73.92,-29.0,110.1,-34.2
2015-08-15 11:26:00,THL,8.42,84.72,-49.35,73.87,-27.3,120.4,-28.7
2015-08-15 11:27:00,THL,8.43,84.72,-49.35,73.81,-29.3,123.0,-23.6
2015-08-15 11:28:00,THL,8.45,84.72,-49.35,73.76,-25.9,130.5,-18.5
2015-08-15 11:29:00,THL,8.47,84.72,-49.35,73.71,-21.8,137.2,-12.8
2015-08-15 11:30:00,THL,8.48,84.72,-49.35,73.65,-23.4,137.2,-5.8
2015-08-15 11:31:00,THL,8.50,84.72,-49.35,73.60,-23.7,137.2,1.2
2015-08-15 11:32:00,THL,8.51,84.72,-49.35,73.55,-28.5,142.5,10.6
2015-08-15 11:33:00,THL,8.53,84.72,-49.35,73.49,-38.7,146.5,22.1
2015-08-15 11:34:00,THL,8.55,84.72,-49.35,73.44,-51.2,157.2,34.7
2015-08-15 11:35:00,THL,8.56,84.72,-49.35,73.39,-65.7,172.4,47.8
2015-08-15 11:36:00,THL,8.58,84.72,-49.35,73.33,-71.6,181.9,53.2
2015-08-15 11:37:00,THL,8.59,84.72,-49.35,73.28,-75.0,192.4,56.0
2015-08-15 11:38:00,THL,8.61,84.72,-49.35,73.23,-78.3,197.5,59.0
2015-08-15 11:39:00,THL,8.62,84.72,-49.35,73.17,-84.5,203.6,62.7
2015-08-15 11:40:00,THL,8.64,84.72,-49.35,73.12,-95.4,219.0,71.4
2015-08-15 11:41:00,THL,8.66,84.72,-49.35,73.07,-97.9,226.9,76.2
2015-08-15 11:42:00,THL,8.67,84.72,-49.35,73.02,-93.9,227.8,74.9
2015-08-15 11:43:00,THL,8.69,84.72,-49.35,72.96,-92.3,228.7,74.8
2015-08-15 11:44:00,THL,8.70,84.72,-49.35,72.91,-95.6,228.5,76.3
2015-08-15 11:45:00,THL,8.72,84.72,-49.35,72.86,-95.6,225.8,75.0
2015-08-15 11:46:00,THL,8.73,84.72,-49.35,72.80,-95.5,222.2,72.4
2015-08-15 11:47:00,THL,8.75,84.72,-49.35,72.75,-90.7,220.2,68.2
2015-08-15 11:48:00,THL,8.76,84.72,-49.35,72.70,-80.5,226.5,64.9
2015-08-15 11:49:00,THL,8.78,84.72,-49.35,72.65,-70.7,234.3,63.5
2015-08-15 11:50:00,THL,8.80,84.72,-49.35,72.59,-75.6,237.0,67.1
2015-08-15 11:51:00,THL,8.81,84.72,-49.35,72.54,-75.2,235.3,66.8
2015-08-15 11:52:00,THL,8.83,84.72,-49.35,72.49,-73.4,225.7,62.3
2015-08-15 11:53:00,THL,8.84,84.72,-49.35,72.44,-66.6,227.6,58.8
2015-08-15 11:54:00,THL,8.86,84.72,-49.35,72.38,-62.0,226.9,55.9
2015-08-15 11:55:00,THL,8.87,84.72,-49.35,72.33,-59.5,225.3,54.4
2015-08-15 11:56:00,THL,8.89,84.72,-49.35,72.28,-58.1,221.6,52.1
2015-08-15 11:57:00,THL,8.90,84.72,-49.35,72.23,-61.0,219.1,51.9
2015-08-15 11:58:00,THL,8.92,84.72,-49.35,72.18,-60.1,219.3,51.0
2015-08-15 11:59:00,THL,8.94,84.72,-49.35,72.12,-62.8,217.9,51.0
2015-08-15 12:00:00,THL,8.95,84.72,-49.35,72.07,-62.3,215.8,48.9
2015-08-15 12:01:00,THL,8.97,84.72,-49.35,72.02,-64.8,217.1,48.3
2015-08-15 12:02:00,THL,8.98,84.72,-49.35,71.97,-65.3,211.9,45.5
2015-08-15 12:03:00,THL,9.00,84.72,-49.35,71.92,-66.4,201.4,42.1
2015-08-15 12:04:00,THL,9.01,84.72,-49.35,71.87,-65.1,193.1,39.1
2015-08-15 12:05:00,THL,9.03,84.72,-49.35,71.81,-64.8,192.4,39.1
2015-08-15 12:06:00,THL,9.04,84.72,-49.35,71.76,-73.4,187.0,40.8
2015-08-15 12:07:00,THL,9.06,84.72,-49.35,71.71,-84.8,182.1,44.3
2015-08-15 12:08:00,THL,9.07,84.72,-49.35,71.66,-76.6,182.2,43.0
2015-08-15 12:09:00,THL,9.09,84.72,-49.35,71.61,-66.4,185.2,41.7
2015-08-15 12:10:00,THL,9.10,84.72,-49.35,71.56,-50.1,170.9,34.3
2015-08-15 12:11:00,THL,9.12,84.72,-49.35,71.51,-56.8,143.1,31.2
2015-08-15 12:12:00,THL,9.13,84.72,-49.35,71.45,-63.7,122.5,29.7
2015-08-15 12:13:00,THL,9.15,84.72,-49.35,71.40,-69.6,116.3,31.5
2015-08-15 12:14:00,THL,9.16,84.72,-49.35,71.35,-72.9,111.0,32.6
2015-08-15 12:15:00,THL,9.18,84.72,-49.35,71.30,-76.5,110.3,33.9
2015-08-15 12:16:00,THL,9.19,84.72,-49.35,71.25,-80.3,115.6,37.5
2015-08-15 12:17:00,THL,9.21,84.72,-49.35,71.20,-78.2,119.5,39.5
2015-08-15 12:18:00,THL,9.23,84.72,-49.35,71.15,-67.5,119.8,38.1
2015-08-15 12:19:00,THL,9.24,84.72,-49.35,71.10,-56.8,114.1,33.9
2015-08-15 12:20:00,THL,9.26,84.72,-49.35,71.05,-61.0,100.9,32.2
2015-08-15 12:21:00,THL,9.27,84.72,-49.35,71.00,-71.6,90.2,32.9
2015-08-15 12:22:00,THL,9.29,84.72,-49.35,70.95,-79.8,88.7,34.9
2015-08-15 12:23:00,THL,9.30,84.72,-49.35,70.90,-87.7,85.3,35.3
2015-08-15 12:24:00,THL,9.32,84.72,-49.35,70.85,-99.3,82.4,37.7
2015-08-15 12:25:00,THL,9.33,84.72,-49.35,70.80,-111.1,80.6,39.5
2015-08-15 12:26:00,THL,9.35,84.72,-49.35,70.75,-115.2,87.7,41.3
2015-08-15 12:27:00,THL,9.36,84.72,-49.35,70.70,-111.9,103.5,43.0
2015-08-15 12:28:00,THL,9.38,84.72,-49.35,70.65,-98.4,119.5,43.2
2015-08-15 12:29:00,THL,9.39,84.72,-49.35,70.60,-75.4,126.6,38.7
2015-08-15 12:30:00,THL,9.41,84.72,-49.35,70.55,-71.8,116.1,37.7
2015-08-15 12:31:00,THL,9.42,84.72,-49.35,70.50,-75.0,92.6,35.0
2015-08-15 12:32:00,THL,9.44,84.72,-49.35,70.45,-83.6,80.3,34.8
2015-08-15 12:33:00,THL,9.45,84.72,-49.35,70.40,-85.5,88.2,37.5
2015-08-15 12:34:00,THL,9.47,84.72,-49.35,70.35,-83.9,93.1,37.9
2015-08-15 12:35:00,THL,9.48,84.72,-49.35,70.30,-85.8,92.1,39.4
2015-08-15 12:36:00,THL,9.49,84.72,-49.35,70.26,-81.1,89.7,38.7
2015-08-15 12:37:00,THL,9.51,84.72,-49.35,70.21,-81.1,83.4,38.2
2015-08-15 12:38:00,THL,9.52,84.72,-49.35,70.16,-84.5,80.1,39.5
2015-08-15 12:39:00,THL,9.54,84.72,-49.35,70.11,-86.3,85.4,42.3
2015-08-15 12:40:00,THL,9.55,84.72,-49.35,70.06,-89.4,87.7,43.9
2015-08-15 12:41:00,THL,9.57,84.72,-49.35,70.01,-88.0,92.1,45.3
2015-08-15 12:42:00,THL,9.58,84.72,-49.35,69.96,-85.1,94.0,46.2
2015-08-15 12:43:00,THL,9.60,84.72,-49.35,69.92,-84.9,98.3,50.4
2015-08-15 12:44:00,THL,9.61,84.72,-49.35,69.87,-89.9,90.5,52.3
2015-08-15 12:45:00,THL,9.63,84.72,-49.35,69.82,-97.8,84.9,55.6
2015-08-15 12:46:00,THL,9.64,84.72,-49.35,69.77,-97.5,89.9,59.0
2015-08-15 12:47:00,THL,9.66,84.72,-49.35,69.72,-94.3,97.2,62.2
2015-08-15 12:48:00,THL,9.67,84.72,-49.35,69.68,-95.2,101.5,66.2
2015-08-15 12:49:00,THL,9.69,84.72,-49.35,69.63,-89.4,107.1,69.9
2015-08-15 12:50:00,THL,9.70,84.72,-49.35,69.58,-86.8,107.1,72.0
2015-08-15 12:51:00,THL,9.72,84.72,-49.35,69.53,-90.1,100.0,74.1
2015-08-15 12:52:00,THL,9.73,84.72,-49.35,69.49,-91.6,95.9,76.8
2015-08-15 12:53:00,THL,9.75,84.72,-49.35,69.44,-93.4,91.4,78.9
2015-08-15 12:54:00,THL,9.76,84.72,-49.35,69.39,-99.0,84.9,81.3
2015-08-15 12:55:00,THL,9.78,84.72,-49.35,69.35,-106.7,78.8,82.8
2015-08-15 12:56:00,THL,9.79,84.72,-49.35,69.30,-115.9,74.1,84.1
2015-08-15 12:57:00,THL,9.80,84.72,-49.35,69.25,-123.7,69.0,84.5
2015-08-15 12:58:00,THL,9.82,84.72,-49.35,69.21,-128.7,65.7,84.4
2015-08-15 12:59:00,THL,9.83,84.72,-49.35,69.16,-131.0,65.0,84.0
2015-08-15 13:00:00,THL,9.85,84.72,-49.35,69.11,-132.5,66.3,83.5
